Theta_e
300 300 300 300 300 300 300 300 301 301 301 301 302 302 302 302 302 309 312 312 312 310 310 312 315 321 323 326 326 326 329 329 327 326 324 323 324 324 326 328 329 331 334 335 338
300 300 300 300 301 301 300 300 301 301 302 302 302 302 302 302 303 311 312 309 305 305 311 313 316 317 323 326 327 328 330 330 328 327 326 324 324 324 326 328 330 332 333 333 337
300 300 300 300 302 301 301 301 302 303 303 302 302 303 303 303 314 317 310 308 309 309 311 312 315 316 321 324 327 328 330 330 329 328 327 326 325 324 325 328 330 332 333 333 334
300 300 300 300 302 302 301 302 303 303 304 304 303 304 304 309 314 317 308 303 304 306 310 314 315 316 317 323 323 328 328 328 329 328 328 327 325 326 325 325 328 331 333 333 332
300 300 300 301 301 302 302 302 303 304 304 304 305 305 309 315 310 307 308 310 312 310 310 312 315 317 319 319 323 325 326 326 327 328 328 328 327 328 327 326 325 325 329 331 331
300 300 301 301 301 302 302 303 303 303 303 304 305 306 315 316 309 310 311 311 312 311 311 311 311 314 317 318 321 322 324 325 326 327 327 328 328 327 328 327 327 326 326 328 330
299 300 300 301 301 302 302 303 303 303 303 305 306 307 314 311 310 311 312 311 312 311 311 312 311 311 314 318 317 318 320 322 324 326 327 327 328 329 328 327 328 329 328 329 331
299 299 300 301 301 302 303 304 306 303 305 306 307 313 315 309 310 311 310 311 311 311 311 311 311 312 311 312 314 317 320 321 322 324 325 326 328 328 327 329 329 329 330 330 331
298 299 300 301 301 302 305 306 306 305 305 306 314 314 314 310 310 309 309 310 310 311 311 311 311 312 313 312 312 314 317 321 321 322 323 324 328 327 326 327 328 329 329 330 329
298 299 301 302 301 301 304 308 310 308 309 311 312 315 312 309 309 308 309 310 310 310 310 311 312 315 314 313 313 313 315 317 319 321 322 323 326 326 326 327 327 329 329 329 329
298 299 303 305 302 301 304 313 314 315 312 311 311 309 309 309 308 309 310 310 311 311 314 313 313 315 315 315 315 314 314 314 317 320 321 322 324 324 326 325 326 328 328 329 329
298 301 306 305 302 302 311 312 310 311 312 311 310 309 309 309 309 309 310 311 311 313 313 314 314 313 314 314 313 314 314 315 315 316 320 322 322 323 326 326 325 326 327 328 329
298 306 304 305 301 309 311 311 310 311 313 310 309 310 309 309 309 309 309 310 312 312 313 313 313 313 313 313 313 313 314 314 314 315 317 320 322 323 324 325 325 325 326 326 327
300 306 304 305 311 309 313 310 310 310 316 312 311 310 309 309 311 309 309 310 311 312 312 313 313 313 311 312 313 313 313 312 313 314 317 319 322 323 323 324 325 325 325 326 327
303 308 308 307 311 313 311 311 310 311 320 311 311 309 309 310 309 311 310 309 312 312 312 313 313 314 315 312 312 312 312 312 312 313 315 316 319 321 323 324 325 326 325 325 326
306 307 308 311 313 310 311 311 311 317 317 311 311 311 311 311 310 310 309 309 309 311 312 312 313 314 314 314 312 312 311 312 312 313 316 316 318 320 322 324 324 325 325 325 325
307 307 308 310 312 310 311 312 317 316 312 313 312 311 312 312 310 310 310 311 310 312 312 312 313 314 313 314 314 312 312 312 313 315 314 315 319 319 321 322 323 323 323 323 323
306 308 310 311 310 311 312 315 316 313 313 312 311 312 312 311 311 311 311 311 310 311 312 313 314 313 313 313 314 313 313 312 315 315 315 316 317 319 320 321 322 322 322 323 322
305 311 313 312 311 310 312 317 315 313 311 311 312 312 312 311 311 311 311 311 310 311 311 312 313 312 312 314 313 314 314 313 313 313 316 317 317 319 321 321 322 322 321 322 323
306 312 313 310 310 310 314 313 312 311 311 311 312 311 312 312 312 312 311 311 310 310 310 311 311 311 313 314 312 313 314 316 314 314 312 316 317 318 320 320 321 322 322 322 323
310 314 312 307 309 312 314 312 311 311 310 311 311 312 312 311 311 311 311 311 311 310 310 310 310 311 312 314 315 314 315 314 314 315 314 316 318 319 320 320 322 323 322 322 322
311 315 311 306 313 311 311 309 307 311 310 311 310 311 312 311 311 311 311 311 310 309 309 311 313 311 311 311 312 312 314 315 319 318 315 315 316 317 321 322 321 322 321 321 322
309 310 310 309 315 314 310 309 309 311 311 310 310 311 310 310 311 311 311 310 309 309 311 311 313 315 311 312 313 314 314 314 314 316 317 319 319 319 323 323 322 322 321 320 319
308 313 311 311 310 311 311 311 311 309 310 310 310 310 310 311 310 312 312 311 310 310 309 310 312 312 315 313 312 313 313 312 314 316 315 316 315 316 317 321 320 319 319 320 317
309 311 309 312 312 312 311 311 310 311 310 310 310 310 310 311 312 311 312 311 311 311 311 312 314 312 312 312 312 311 310 311 311 312 312 314 313 315 316 315 319 317 316 317 317
307 307 306 307 309 311 309 311 310 310 310 310 311 310 309 310 310 311 311 312 313 313 312 311 314 313 313 312 311 311 311 311 311 311 312 312 312 313 314 314 315 315 315 316 317
305 305 304 308 310 310 312 311 310 309 309 309 310 310 310 310 310 310 310 311 312 313 313 311 312 314 313 312 313 312 312 315 315 313 313 313 313 314 314 315 315 315 316 316 316
Wind_Speed
10 10 11 11 12 12 12 11 12 12 12 11 11 11 12 11 9 9 7 12 15 15 13 9 12 12 16 24 24 20 16 18 22 20 18 15 16 22 16 15 16 14 13 4 3
11 11 11 12 11 11 10 10 11 11 12 11 10 10 11 12 9 7 14 16 12 7 5 13 16 15 21 20 27 22 17 26 20 18 13 14 19 25 19 16 20 14 10 3 5
12 12 12 12 12 11 9 8 8 9 11 10 9 11 11 8 6 4 5 2 5 5 8 11 15 22 26 27 28 29 27 24 22 21 16 19 20 24 23 18 21 21 18 13 7
14 14 13 13 11 11 11 9 9 10 10 11 10 14 9 2 2 2 10 13 12 10 8 11 15 23 26 27 32 26 36 32 31 33 19 19 21 25 28 25 22 19 17 15 8
16 15 14 13 12 11 10 10 11 10 11 12 12 12 4 6 5 5 9 11 9 7 8 11 16 20 25 26 30 32 30 35 34 30 31 25 27 25 29 28 28 27 21 19 20
17 16 15 14 13 11 10 12 14 13 11 12 9 8 6 8 2 4 7 8 7 8 7 9 14 18 25 27 27 33 33 37 37 35 33 24 29 28 34 29 30 30 28 27 26
17 17 17 15 14 13 13 14 14 13 12 8 4 2 7 4 2 6 7 9 8 7 8 8 11 17 13 17 31 32 29 29 28 35 33 32 26 32 37 34 34 29 29 29 31
18 19 18 17 15 13 12 14 16 11 6 3 2 1 3 1 4 6 7 8 7 10 11 12 12 18 24 26 30 22 21 26 34 30 31 26 34 39 40 36 34 34 33 32 31
20 20 20 17 14 12 11 15 12 10 3 4 5 3 5 3 6 9 9 9 11 11 10 13 14 19 18 17 19 20 25 28 31 31 30 29 36 33 44 34 34 34 35 35 36
22 22 18 16 12 9 8 9 10 4 5 1 5 6 4 6 11 11 7 10 13 14 16 17 16 14 14 13 20 23 26 29 31 29 28 30 36 32 38 35 35 37 36 32 35
24 23 19 14 11 7 9 9 3 4 7 11 8 6 4 8 7 8 6 10 6 12 13 11 14 15 18 19 23 23 27 34 31 25 29 30 32 36 30 34 33 33 32 36 35
25 24 20 13 6 3 8 6 5 7 9 10 10 8 7 5 7 6 6 9 11 13 14 14 15 17 17 21 25 24 26 30 29 31 27 25 31 34 28 29 36 38 36 30 27
26 21 18 8 4 5 3 3 4 10 8 2 5 7 4 5 10 12 9 10 13 15 13 14 16 19 19 19 19 22 24 25 29 26 28 31 27 33 32 30 34 39 44 44 42
24 15 12 7 7 4 1 6 9 7 5 9 7 4 6 8 14 8 7 7 14 17 17 16 15 11 15 22 21 23 22 25 24 23 22 28 23 28 27 28 29 33 38 42 39
21 7 7 7 4 4 5 9 9 2 5 6 4 2 6 11 10 3 5 10 15 15 15 18 19 19 20 20 19 22 20 24 26 24 27 30 22 23 23 28 26 26 34 33 33
19 4 3 9 4 6 8 9 2 7 2 3 1 4 10 11 8 7 10 13 19 17 16 21 22 20 19 18 19 18 21 26 24 21 22 30 27 25 22 20 23 19 24 25 25
18 3 1 3 5 8 8 5 6 5 4 2 6 10 13 12 6 4 11 12 11 11 15 22 17 13 10 18 17 17 20 15 17 17 22 26 26 22 21 28 23 19 27 29 23
15 4 2 2 6 8 5 9 4 6 8 11 10 15 9 7 4 7 12 12 10 5 11 10 16 12 13 13 17 18 18 14 18 17 18 24 25 23 29 31 10 9 14 10 8
7 2 2 4 7 7 11 6 6 10 9 10 13 8 3 5 6 12 9 9 6 10 8 13 12 21 21 12 12 15 19 22 23 21 14 13 25 27 23 32 24 22 10 9 5
4 4 2 7 8 6 9 7 5 3 7 9 12 4 11 14 12 11 9 6 6 5 11 15 19 17 10 20 15 15 18 10 8 18 19 16 21 19 23 13 16 13 8 5 6
5 6 1 8 5 9 4 7 6 4 6 7 11 14 13 13 13 15 14 13 10 10 14 16 18 21 16 13 16 9 15 17 12 14 13 10 12 19 26 25 19 17 11 4 4
5 3 5 7 6 4 5 6 4 6 5 7 7 7 11 12 13 17 15 12 10 15 17 19 13 18 22 23 11 7 13 6 5 12 14 16 16 22 21 6 27 13 9 3 7
10 5 4 4 4 5 7 9 5 7 7 5 7 9 11 13 8 12 16 14 14 12 6 8 7 11 17 6 20 8 18 8 12 17 18 11 10 15 14 19 15 10 5 3 10
7 4 1 2 2 5 8 5 4 4 12 7 8 15 9 12 13 10 17 9 8 15 16 9 15 16 17 24 10 9 16 14 14 10 14 20 20 11 28 18 12 3 5 8 14
6 3 3 4 5 9 9 10 10 5 5 7 7 6 9 8 17 19 14 21 20 15 12 5 11 18 20 22 25 21 16 16 19 19 18 22 18 14 15 25 24 11 12 16 16
8 7 12 15 7 9 4 7 8 8 8 13 12 11 10 14 15 23 21 19 11 13 7 5 10 14 17 20 20 22 20 19 19 22 24 25 24 18 15 24 24 17 19 17 12
8 5 7 10 5 5 7 6 10 14 10 7 9 13 16 16 21 25 30 30 19 12 10 4 8 11 15 14 13 13 11 16 18 17 15 24 21 20 20 16 15 16 16 16 14
Wind_Direction
11 6 1 356 348 341 338 336 334 333 333 336 333 322 314 306 291 304 263 230 227 256 229 244 251 238 228 238 230 237 253 250 251 250 261 272 279 267 250 256 248 242 248 356 238
4 2 359 352 350 344 341 338 338 343 347 347 343 335 325 314 300 268 235 251 251 275 272 250 244 232 232 234 232 230 239 241 259 267 275 255 262 261 253 219 239 212 220 207 177
358 357 355 352 350 349 345 340 343 351 352 350 350 346 335 326 297 125 251 266 307 297 288 259 250 244 235 237 229 233 242 254 249 257 279 262 269 270 265 246 234 221 208 199 171
351 350 348 348 344 346 340 334 335 344 350 354 347 347 340 360 349 184 311 317 321 330 290 264 249 243 242 238 238 244 241 249 256 266 257 257 269 268 271 263 243 231 216 201 206
351 349 346 342 339 337 330 322 324 331 333 334 335 341 3 238 62 298 350 341 355 318 283 264 258 246 246 249 246 241 247 248 249 259 259 259 257 260 258 257 259 252 246 226 242
352 348 345 340 335 330 321 316 319 322 320 322 330 340 340 256 327 321 324 336 320 318 293 276 265 265 276 263 252 255 253 251 251 245 253 248 258 262 255 256 256 253 247 245 242
347 343 340 338 336 331 327 324 322 318 317 318 346 339 276 48 341 321 332 321 308 293 289 287 280 264 269 257 255 265 269 266 258 246 243 245 257 251 249 251 255 254 246 246 242
342 340 334 330 331 329 332 332 327 325 333 346 32 239 288 103 357 334 318 316 309 305 285 277 278 274 265 265 275 280 263 249 245 246 244 237 247 251 252 248 245 251 248 244 239
340 338 332 327 321 321 333 334 338 336 17 358 37 253 169 301 346 329 320 313 305 302 285 272 274 268 266 249 256 247 251 248 253 241 241 236 245 251 254 247 254 243 247 244 243
338 337 332 325 318 309 327 333 335 3 14 334 271 244 219 334 324 323 323 317 309 305 289 250 263 250 247 237 248 255 245 247 255 259 235 238 239 244 251 255 246 254 249 245 240
341 338 333 326 318 317 344 313 277 201 248 291 301 282 284 322 329 324 324 326 304 295 280 286 269 257 266 266 262 271 271 273 272 265 244 256 241 244 238 237 254 256 241 231 241
345 341 337 329 318 357 31 5 20 338 300 274 250 249 263 299 305 322 311 302 314 300 299 273 255 265 272 274 278 276 275 271 271 266 274 271 254 254 245 234 234 247 251 242 243
347 348 345 352 24 59 5 31 341 330 260 83 192 226 232 276 290 297 293 288 292 297 289 291 298 300 284 273 264 267 269 274 278 280 259 260 257 260 258 249 233 239 244 247 248
348 357 15 52 60 343 176 335 334 314 266 135 195 179 233 292 262 281 294 290 290 292 295 289 288 268 275 269 258 265 269 277 272 270 259 248 256 251 245 250 244 238 241 245 242
347 357 20 28 1 336 308 323 312 276 246 123 147 44 265 284 308 198 247 270 289 304 296 288 291 285 281 263 262 272 277 275 263 261 259 256 256 248 235 244 238 239 246 247 249
344 318 356 357 27 338 331 319 314 231 80 165 270 267 299 300 270 276 272 274 258 265 287 284 308 267 276 275 275 287 280 277 255 253 243 244 243 244 242 245 231 233 231 234 243
340 258 268 3 329 326 326 293 245 286 119 76 336 317 307 284 287 269 305 296 305 324 312 318 302 299 338 289 263 254 269 271 257 246 245 239 245 242 252 254 268 279 244 236 236
339 223 264 290 328 327 316 258 299 69 12 357 315 297 271 0 329 298 293 294 316 277 305 303 313 339 354 303 280 277 260 265 261 263 252 242 244 245 235 252 223 260 261 167 206
18 329 257 280 318 321 281 259 23 12 359 331 305 293 220 227 279 294 299 325 330 337 315 308 309 312 292 272 270 282 261 251 266 259 276 285 286 231 240 219 240 227 228 208 206
359 247 203 316 308 295 264 287 326 22 324 314 302 320 319 327 313 318 321 334 288 290 294 293 297 301 326 332 261 240 260 289 259 270 261 269 257 256 215 220 214 196 185 163 241
11 261 286 318 302 251 287 349 332 9 326 325 324 304 310 315 313 312 303 296 355 334 314 300 283 289 282 222 261 242 244 245 259 249 272 295 282 226 209 196 221 165 140 150 302
345 267 335 338 257 274 295 8 341 279 305 298 292 304 294 322 316 306 297 311 348 322 307 316 305 280 279 283 252 288 270 272 224 270 278 250 265 309 275 194 195 126 136 45 343
326 307 337 343 315 353 339 300 242 294 299 293 271 285 300 300 300 293 312 321 316 305 326 343 292 309 283 267 14 360 325 234 250 279 254 290 285 285 102 102 99 106 96 314 337
328 322 16 10 121 312 338 291 292 310 292 292 290 286 299 284 282 277 290 305 312 293 291 294 267 258 273 293 155 237 240 258 264 270 257 258 269 269 293 131 136 142 1 295 308
349 29 6 304 321 327 299 288 283 292 266 297 283 279 306 306 310 287 306 318 310 304 284 207 268 273 273 279 283 279 280 277 270 269 273 274 275 263 274 309 311 0 313 293 301
344 345 336 298 280 290 286 287 302 308 298 294 273 289 294 285 286 289 298 294 299 299 295 275 267 288 287 285 285 287 278 259 257 268 266 274 275 276 267 258 283 303 287 289 300
350 332 330 290 278 285 302 321 317 313 303 287 294 290 286 285 286 283 284 284 268 246 274 258 278 290 280 298 320 279 306 336 334 271 302 290 290 297 287 267 272 273 285 286 285